| time (UTC) | temp F | wind direction | speed MPH | gust MPH | rain 1hr in | rain 24hr in | rain mn in | humidity % | barometer mb |
| 20260508230504 | 44 | 110 | 3.0 | 7.0 | 0.00 | 0.00 | 0.00 | 83 | 1004.0 |
| 20260508230004 | 44 | 95 | 4.0 | 7.0 | 0.00 | 0.00 | 0.00 | 82 | 1004.0 |
| 20260508225503 | 44 | 86 | 4.0 | 6.0 | 0.00 | 0.00 | 0.00 | 83 | 1004.1 |
| 20260508225004 | 45 | 62 | 4.0 | 6.0 | 0.00 | 0.00 | 0.00 | 82 | 1004.1 |
| 20260508224503 | 45 | 75 | 4.0 | 6.0 | 0.00 | 0.00 | 0.00 | 81 | 1004.2 |
| 20260508224006 | 45 | 104 | 4.0 | 7.0 | 0.00 | 0.00 | 0.00 | 81 | 1004.2 |
| 20260508223503 | 45 | 76 | 5.0 | 7.0 | 0.00 | 0.00 | 0.00 | 81 | 1004.2 |
| 20260508222958 | 45 | 89 | 2.0 | 9.0 | 0.00 | 0.00 | 0.00 | 81 | 1004.2 |
| 20260508222724 | 45 | 86 | 4.0 | 10.0 | 0.00 | 0.00 | 0.00 | 80 | 1004.2 |
| 20260508221958 | 45 | 126 | 4.0 | 10.0 | 0.00 | 0.00 | 0.00 | 79 | 1004.2 |
| 20260508221454 | 45 | 78 | 5.0 | 10.0 | 0.00 | 0.00 | 0.00 | 78 | 1004.2 |
| 20260508220954 | 46 | 110 | 3.0 | 7.0 | 0.00 | 0.00 | 0.00 | 78 | 1004.4 |
| 20260508220454 | 46 | 82 | 4.0 | 7.0 | 0.00 | 0.00 | 0.00 | 77 | 1004.3 |
| 20260508215955 | 47 | 79 | 6.0 | 7.0 | 0.00 | 0.00 | 0.00 | 77 | 1004.3 |
| 20260508215454 | 47 | 83 | 4.0 | 9.0 | 0.00 | 0.00 | 0.00 | 76 | 1004.4 |
| 20260508214954 | 47 | 92 | 6.0 | 9.0 | 0.00 | 0.00 | 0.00 | 78 | 1004.4 |
| 20260508214451 | 47 | 86 | 6.0 | 9.0 | 0.00 | 0.00 | 0.00 | 77 | 1004.4 |
| 20260508213951 | 47 | 75 | 5.0 | 11.0 | 0.00 | 0.00 | 0.00 | 78 | 1004.5 |
| 20260508213718 | 46 | 66 | 4.0 | 13.0 | 0.00 | 0.00 | 0.00 | 77 | 1004.4 |
| 20260508213220 | 46 | 103 | 6.0 | 13.0 | 0.00 | 0.00 | 0.00 | 76 | 1004.4 |
| 20260508212450 | 46 | 93 | 7.0 | 11.0 | 0.00 | 0.00 | 0.00 | 75 | 1004.4 |
| 20260508211950 | 46 | 96 | 4.0 | 10.0 | 0.00 | 0.00 | 0.00 | 75 | 1004.5 |
| 20260508211453 | 47 | 110 | 6.0 | 10.0 | 0.00 | 0.00 | 0.00 | 75 | 1004.5 |
| 20260508210950 | 47 | 54 | 5.0 | 9.0 | 0.00 | 0.00 | 0.00 | 75 | 1004.5 |
| 20260508210717 | 47 | 71 | 5.0 | 9.0 | 0.00 | 0.00 | 0.00 | 76 | 1004.6 |
| 20260508205950 | 46 | 75 | 4.0 | 9.0 | 0.00 | 0.00 | 0.00 | 75 | 1004.6 |
| 20260508205449 | 46 | 80 | 5.0 | 10.0 | 0.00 | 0.00 | 0.00 | 75 | 1004.6 |
| 20260508204950 | 46 | 75 | 5.0 | 11.0 | 0.00 | 0.00 | 0.00 | 74 | 1004.7 |
| 20260508204450 | 47 | 59 | 6.0 | 11.0 | 0.00 | 0.00 | 0.00 | 73 | 1004.8 |
| 20260508203950 | 47 | 72 | 3.0 | 9.0 | 0.00 | 0.00 | 0.00 | 75 | 1004.7 |
| 20260508202948 | 47 | 76 | 6.0 | 11.0 | 0.00 | 0.00 | 0.00 | 72 | 1004.6 |
| 20260508202448 | 48 | 92 | 5.0 | 11.0 | 0.00 | 0.00 | 0.00 | 72 | 1004.6 |
| 20260508201949 | 48 | 79 | 6.0 | 11.0 | 0.00 | 0.00 | 0.00 | 73 | 1004.5 |
| 20260508201451 | 48 | 71 | 6.0 | 11.0 | 0.00 | 0.00 | 0.00 | 73 | 1004.5 |
| 20260508200949 | 48 | 45 | 6.0 | 11.0 | 0.00 | 0.00 | 0.00 | 76 | 1004.7 |
| 20260508200450 | 48 | 61 | 5.0 | 11.0 | 0.00 | 0.00 | 0.00 | 73 | 1004.6 |
| 20260508195950 | 48 | 93 | 6.0 | 12.0 | 0.00 | 0.00 | 0.00 | 72 | 1004.7 |
| 20260508195448 | 48 | 93 | 4.0 | 13.0 | 0.00 | 0.00 | 0.00 | 71 | 1004.9 |
| 20260508194948 | 48 | 102 | 9.0 | 13.0 | 0.00 | 0.00 | 0.00 | 70 | 1004.7 |
| 20260508194447 | 48 | 103 | 7.0 | 14.0 | 0.00 | 0.00 | 0.00 | 71 | 1004.8 |
| 20260508193948 | 48 | 75 | 8.0 | 14.0 | 0.00 | 0.00 | 0.00 | 71 | 1005.0 |
| 20260508193447 | 48 | 100 | 8.0 | 12.0 | 0.00 | 0.00 | 0.00 | 70 | 1004.9 |
| 20260508192947 | 47 | 87 | 6.0 | 13.0 | 0.00 | 0.00 | 0.00 | 72 | 1005.1 |
| 20260508192447 | 47 | 117 | 4.0 | 13.0 | 0.00 | 0.00 | 0.00 | 71 | 1005.0 |
| 20260508191946 | 48 | 92 | 7.0 | 11.0 | 0.00 | 0.00 | 0.00 | 72 | 1005.1 |
| 20260508191446 | 47 | 102 | 5.0 | 11.0 | 0.00 | 0.00 | 0.00 | 73 | 1005.2 |
| 20260508190947 | 47 | 65 | 6.0 | 11.0 | 0.00 | 0.00 | 0.00 | 74 | 1005.3 |
| 20260508190447 | 47 | 55 | 5.0 | 12.0 | 0.00 | 0.00 | 0.00 | 74 | 1005.3 |
| 20260508185947 | 47 | 145 | 6.0 | 12.0 | 0.00 | 0.00 | 0.00 | 73 | 1005.3 |
| 20260508185447 | 47 | 103 | 6.0 | 11.0 | 0.00 | 0.00 | 0.00 | 73 | 1005.3 |
| 20260508184946 | 47 | 92 | 4.0 | 11.0 | 0.00 | 0.00 | 0.00 | 73 | 1005.5 |
| 20260508184445 | 47 | 92 | 6.0 | 11.0 | 0.00 | 0.00 | 0.00 | 74 | 1005.4 |
| 20260508183946 | 47 | 75 | 5.0 | 11.0 | 0.00 | 0.00 | 0.00 | 74 | 1005.5 |
| 20260508183458 | 47 | 78 | 6.0 | 11.0 | 0.00 | 0.00 | 0.00 | 73 | 1005.6 |
| 20260508182945 | 47 | 87 | 7.0 | 11.0 | 0.00 | 0.00 | 0.00 | 75 | 1005.7 |
| 20260508182445 | 47 | 89 | 6.0 | 12.0 | 0.00 | 0.00 | 0.00 | 76 | 1005.7 |
| 20260508181945 | 47 | 114 | 6.0 | 12.0 | 0.00 | 0.00 | 0.00 | 75 | 1005.7 |
| 20260508181444 | 46 | 69 | 6.0 | 12.0 | 0.00 | 0.00 | 0.00 | 75 | 1005.8 |
| 20260508180944 | 46 | 75 | 7.0 | 12.0 | 0.00 | 0.00 | 0.00 | 75 | 1005.8 |
| 20260508180447 | 46 | 86 | 6.0 | 12.0 | 0.00 | 0.00 | 0.00 | 74 | 1005.9 |
| 20260508175944 | 46 | 116 | 6.0 | 13.0 | 0.00 | 0.00 | 0.00 | 74 | 1005.9 |
| 20260508175444 | 46 | 107 | 6.0 | 14.0 | 0.00 | 0.00 | 0.00 | 74 | 1006.1 |
| 20260508174945 | 46 | 107 | 8.0 | 14.0 | 0.00 | 0.00 | 0.00 | 74 | 1006.1 |
| 20260508174444 | 46 | 92 | 5.0 | 11.0 | 0.00 | 0.00 | 0.00 | 75 | 1006.2 |
| 20260508173945 | 45 | 89 | 5.0 | 12.0 | 0.00 | 0.00 | 0.00 | 76 | 1006.3 |
| 20260508173443 | 45 | 85 | 6.0 | 12.0 | 0.00 | 0.00 | 0.00 | 73 | 1006.4 |
| 20260508172943 | 46 | 87 | 8.0 | 13.0 | 0.00 | 0.00 | 0.00 | 72 | 1006.4 |
| 20260508172443 | 46 | 99 | 7.0 | 13.0 | 0.00 | 0.00 | 0.00 | 73 | 1006.4 |
| 20260508171943 | 46 | 86 | 6.0 | 12.0 | 0.00 | 0.00 | 0.00 | 74 | 1006.6 |
| 20260508171443 | 45 | 114 | 7.0 | 11.0 | 0.00 | 0.00 | 0.00 | 73 | 1006.5 |
| 20260508170943 | 45 | 79 | 6.0 | 11.0 | 0.00 | 0.00 | 0.00 | 76 | 1006.5 |
| 20260508170442 | 44 | 66 | 6.0 | 11.0 | 0.00 | 0.00 | 0.00 | 75 | 1006.5 |
| 20260508170002 | 44 | 110 | 7.0 | 11.0 | 0.00 | 0.00 | 0.00 | 74 | 1006.6 |
| 20260508165457 | 45 | 123 | 6.0 | 11.0 | 0.00 | 0.00 | 0.00 | 75 | 1006.6 |
| 20260508165207 | 44 | 68 | 3.0 | 9.0 | 0.00 | 0.00 | 0.00 | 76 | 1006.7 |
| 20260508164441 | 44 | 106 | 5.0 | 9.0 | 0.00 | 0.00 | 0.00 | 76 | 1006.7 |
| 20260508163940 | 44 | 96 | 5.0 | 9.0 | 0.00 | 0.00 | 0.00 | 76 | 1006.8 |
| 20260508163437 | 44 | 99 | 2.0 | 10.0 | 0.00 | 0.00 | 0.00 | 75 | 1006.7 |
| 20260508162938 | 44 | 100 | 5.0 | 10.0 | 0.00 | 0.00 | 0.00 | 74 | 1006.7 |
| 20260508162438 | 45 | 62 | 5.0 | 11.0 | 0.00 | 0.00 | 0.00 | 74 | 1006.8 |
| 20260508161938 | 45 | 97 | 6.0 | 11.0 | 0.00 | 0.00 | 0.00 | 74 | 1006.8 |
| 20260508161438 | 45 | 107 | 5.0 | 10.0 | 0.00 | 0.00 | 0.00 | 74 | 1006.7 |
| 20260508160951 | 45 | 79 | 6.0 | 10.0 | 0.00 | 0.00 | 0.00 | 72 | 1006.8 |
| 20260508155938 | 46 | 89 | 7.0 | 10.0 | 0.00 | 0.00 | 0.00 | 70 | 1006.8 |
| 20260508155437 | 46 | 34 | 4.0 | 7.0 | 0.00 | 0.00 | 0.00 | 70 | 1006.9 |
| 20260508155206 | 47 | 117 | 3.0 | 7.0 | 0.00 | 0.00 | 0.00 | 73 | 1007.0 |
| 20260508154534 | 46 | 76 | 4.0 | 9.0 | 0.00 | 0.00 | 0.00 | 72 | 1007.1 |
| 20260508154521 | 47 | 95 | 4.0 | 9.0 | 0.00 | 0.00 | 0.00 | 72 | 1007.0 |
| 20260508153610 | 46 | 93 | 3.0 | 6.0 | 0.00 | 0.00 | 0.00 | 73 | 1007.2 |
| 20260508153029 | 45 | 118 | 2.0 | 6.0 | 0.00 | 0.00 | 0.00 | 76 | 1007.2 |
| 20260508152435 | 45 | 76 | 4.0 | 7.0 | 0.00 | 0.00 | 0.00 | 74 | 1007.2 |
| 20260508151936 | 45 | 89 | 3.0 | 7.0 | 0.00 | 0.00 | 0.00 | 73 | 1007.3 |
| 20260508151436 | 46 | 73 | 4.0 | 6.0 | 0.00 | 0.00 | 0.00 | 75 | 1007.3 |
| 20260508150935 | 46 | 110 | 5.0 | 7.0 | 0.00 | 0.00 | 0.00 | 74 | 1007.3 |
| 20260508150435 | 46 | 48 | 4.0 | 7.0 | 0.00 | 0.00 | 0.00 | 73 | 1007.3 |
| 20260508145934 | 46 | 54 | 4.0 | 7.0 | 0.00 | 0.00 | 0.00 | 73 | 1007.3 |
| 20260508145700 | 46 | 56 | 2.0 | 7.0 | 0.00 | 0.00 | 0.00 | 73 | 1007.4 |
| 20260508144935 | 45 | 68 | 4.0 | 7.0 | 0.00 | 0.00 | 0.00 | 72 | 1007.3 |
| 20260508144706 | 45 | 62 | 5.0 | 6.0 | 0.00 | 0.00 | 0.00 | 71 | 1007.3 |
| 20260508143932 | 45 | 54 | 3.0 | 7.0 | 0.00 | 0.00 | 0.00 | 71 | 1007.4 |
| 20260508143432 | 45 | 51 | 4.0 | 7.0 | 0.00 | 0.00 | 0.00 | 71 | 1007.4 |
| 20260508142933 | 45 | 86 | 5.0 | 7.0 | 0.00 | 0.00 | 0.00 | 71 | 1007.3 |
| 20260508142431 | 45 | 76 | 6.0 | 7.0 | 0.00 | 0.00 | 0.00 | 70 | 1007.4 |
| 20260508141933 | 46 | 90 | 4.0 | 7.0 | 0.00 | 0.00 | 0.00 | 70 | 1007.5 |
| 20260508141431 | 46 | 76 | 5.0 | 7.0 | 0.00 | 0.00 | 0.00 | 68 | 1007.5 |
| 20260508140931 | 47 | 109 | 5.0 | 6.0 | 0.00 | 0.00 | 0.00 | 68 | 1007.5 |
| 20260508140656 | 47 | 65 | 2.0 | 7.0 | 0.00 | 0.00 | 0.00 | 67 | 1007.5 |
| 20260508135931 | 47 | 56 | 4.0 | 7.0 | 0.00 | 0.00 | 0.00 | 67 | 1007.5 |
| 20260508135430 | 47 | 45 | 4.0 | 7.0 | 0.00 | 0.00 | 0.00 | 66 | 1007.6 |
| 20260508134929 | 47 | 30 | 3.0 | 7.0 | 0.00 | 0.00 | 0.00 | 65 | 1007.6 |
| 20260508134429 | 47 | 281 | 2.0 | 7.0 | 0.00 | 0.00 | 0.00 | 65 | 1007.6 |
| 20260508133929 | 47 | 299 | 2.0 | 6.0 | 0.00 | 0.00 | 0.00 | 66 | 1007.7 |
| 20260508133700 | 47 | 307 | 2.0 | 11.0 | 0.00 | 0.00 | 0.00 | 67 | 1007.7 |
| 20260508132926 | 47 | 254 | 3.0 | 12.0 | 0.00 | 0.00 | 0.00 | 65 | 1007.7 |
| 20260508132427 | 47 | 259 | 2.0 | 13.0 | 0.00 | 0.00 | 0.00 | 65 | 1007.8 |
| 20260508131928 | 47 | 278 | 7.0 | 13.0 | 0.00 | 0.00 | 0.00 | 67 | 1007.8 |
| 20260508131425 | 47 | 283 | 5.0 | 12.0 | 0.00 | 0.00 | 0.00 | 67 | 1007.8 |
| 20260508130924 | 47 | 257 | 6.0 | 10.0 | 0.00 | 0.00 | 0.00 | 69 | 1007.8 |
| 20260508130424 | 46 | 271 | 2.0 | 5.0 | 0.00 | 0.00 | 0.00 | 69 | 1007.7 |
| 20260508125923 | 45 | 286 | 2.0 | 5.0 | 0.00 | 0.00 | 0.00 | 69 | 1007.8 |
| 20260508125422 | 44 | 250 | 1.0 | 6.0 | 0.00 | 0.00 | 0.00 | 72 | 1007.9 |
| 20260508124921 | 44 | 264 | 3.0 | 6.0 | 0.00 | 0.00 | 0.00 | 71 | 1007.9 |
| 20260508124421 | 43 | 258 | 3.0 | 6.0 | 0.00 | 0.00 | 0.00 | 72 | 1008.0 |
| 20260508123924 | 42 | 247 | 2.0 | 5.0 | 0.00 | 0.00 | 0.00 | 72 | 1008.1 |
| 20260508123422 | 42 | 238 | 3.0 | 6.0 | 0.00 | 0.00 | 0.00 | 72 | 1008.0 |
| 20260508122920 | 41 | 292 | 3.0 | 6.0 | 0.00 | 0.00 | 0.00 | 74 | 1008.1 |
| 20260508122420 | 40 | 264 | 3.0 | 5.0 | 0.00 | 0.00 | 0.00 | 74 | 1008.0 |
| 20260508121918 | 40 | 271 | 3.0 | 6.0 | 0.00 | 0.00 | 0.00 | 75 | 1008.0 |
| 20260508121417 | 40 | 251 | 2.0 | 6.0 | 0.00 | 0.00 | 0.00 | 74 | 1008.0 |
| 20260508120415 | 39 | 288 | 4.0 | 7.0 | 0.00 | 0.00 | 0.00 | 75 | 1008.1 |
| 20260508115914 | 39 | 278 | 2.0 | 4.0 | 0.00 | 0.00 | 0.00 | 75 | 1008.0 |
| 20260508115416 | 39 | 299 | 1.0 | 3.0 | 0.00 | 0.00 | 0.00 | 76 | 1008.0 |
| 20260508114915 | 39 | 285 | 1.0 | 3.0 | 0.00 | 0.00 | 0.00 | 76 | 1008.0 |
| 20260508114415 | 38 | 289 | 2.0 | 4.0 | 0.00 | 0.00 | 0.00 | 76 | 1008.0 |
| 20260508113913 | 38 | 278 | 2.0 | 6.0 | 0.00 | 0.00 | 0.00 | 76 | 1007.9 |
| 20260508113413 | 38 | 248 | 3.0 | 6.0 | 0.00 | 0.00 | 0.00 | 76 | 1007.9 |
| 20260508112911 | 38 | 279 | 4.0 | 5.0 | 0.00 | 0.00 | 0.00 | 77 | 1007.8 |
| 20260508112411 | 37 | 282 | 2.0 | 4.0 | 0.00 | 0.00 | 0.00 | 77 | 1007.7 |
| 20260508111909 | 37 | 282 | 2.0 | 6.0 | 0.00 | 0.00 | 0.00 | 77 | 1007.7 |
| 20260508111410 | 37 | 268 | 2.0 | 6.0 | 0.00 | 0.00 | 0.00 | 78 | 1007.7 |
| 20260508110909 | 36 | 274 | 4.0 | 6.0 | 0.00 | 0.00 | 0.00 | 79 | 1007.7 |
| 20260508110408 | 35 | 233 | 3.0 | 5.0 | 0.00 | 0.00 | 0.00 | 79 | 1007.6 |
| 20260508105902 | 35 | 248 | 3.0 | 5.0 | 0.00 | 0.00 | 0.00 | 79 | 1007.7 |
| 20260508105403 | 35 | 252 | 3.0 | 5.0 | 0.00 | 0.00 | 0.00 | 79 | 1007.6 |
| 20260508104902 | 35 | 264 | 3.0 | 6.0 | 0.00 | 0.00 | 0.00 | 78 | 1007.6 |
| 20260508104403 | 35 | 244 | 3.0 | 6.0 | 0.00 | 0.00 | 0.00 | 78 | 1007.6 |
| 20260508103902 | 35 | 250 | 4.0 | 5.0 | 0.00 | 0.00 | 0.00 | 78 | 1007.6 |
| 20260508103645 | 35 | 251 | 4.0 | 6.0 | 0.00 | 0.00 | 0.00 | 77 | 1007.6 |
| 20260508102902 | 35 | 268 | 4.0 | 6.0 | 0.00 | 0.00 | 0.00 | 77 | 1007.5 |
| 20260508102403 | 35 | 250 | 3.0 | 6.0 | 0.00 | 0.00 | 0.00 | 77 | 1007.5 |
| 20260508101904 | 35 | 240 | 4.0 | 5.0 | 0.00 | 0.00 | 0.00 | 76 | 1007.5 |
| 20260508101403 | 35 | 230 | 3.0 | 5.0 | 0.00 | 0.00 | 0.00 | 76 | 1007.4 |
| 20260508100903 | 35 | 247 | 2.0 | 5.0 | 0.00 | 0.00 | 0.00 | 76 | 1007.4 |
| 20260508100403 | 36 | 250 | 2.0 | 7.0 | 0.00 | 0.00 | 0.00 | 76 | 1007.4 |
| 20260508095901 | 36 | 250 | 4.0 | 7.0 | 0.00 | 0.00 | 0.00 | 76 | 1007.5 |
| 20260508095402 | 36 | 240 | 4.0 | 7.0 | 0.00 | 0.00 | 0.00 | 76 | 1007.4 |
| 20260508094902 | 35 | 267 | 5.0 | 7.0 | 0.00 | 0.00 | 0.00 | 77 | 1007.5 |
| 20260508094400 | 35 | 244 | 5.0 | 7.0 | 0.00 | 0.00 | 0.00 | 77 | 1007.4 |
| 20260508093900 | 35 | 257 | 4.0 | 7.0 | 0.00 | 0.00 | 0.00 | 77 | 1007.5 |
| 20260508093400 | 35 | 234 | 4.0 | 7.0 | 0.00 | 0.00 | 0.00 | 77 | 1007.5 |
| 20260508092900 | 35 | 240 | 4.0 | 7.0 | 0.00 | 0.00 | 0.00 | 77 | 1007.6 |
| 20260508092400 | 35 | 231 | 4.0 | 7.0 | 0.00 | 0.00 | 0.00 | 77 | 1007.5 |
| 20260508091900 | 35 | 220 | 4.0 | 7.0 | 0.00 | 0.00 | 0.00 | 77 | 1007.6 |
| 20260508091350 | 35 | 244 | 3.0 | 7.0 | 0.00 | 0.00 | 0.00 | 77 | 1007.6 |
| 20260508091118 | 35 | 237 | 4.0 | 6.0 | 0.00 | 0.00 | 0.00 | 77 | 1007.7 |
| 20260508090350 | 35 | 234 | 3.0 | 6.0 | 0.00 | 0.00 | 0.00 | 77 | 1007.7 |
| 20260508090106 | 35 | 230 | 3.0 | 7.0 | 0.00 | 0.00 | 0.00 | 78 | 1007.7 |
| 20260508085347 | 35 | 254 | 4.0 | 7.0 | 0.00 | 0.00 | 0.00 | 78 | 1007.8 |
| 20260508084847 | 35 | 226 | 4.0 | 7.0 | 0.00 | 0.00 | 0.00 | 78 | 1007.8 |
| 20260508084346 | 35 | 231 | 4.0 | 7.0 | 0.00 | 0.00 | 0.00 | 79 | 1007.8 |
| 20260508083844 | 35 | 237 | 4.0 | 7.0 | 0.00 | 0.00 | 0.00 | 79 | 1007.8 |
| 20260508083344 | 35 | 212 | 5.0 | 7.0 | 0.00 | 0.00 | 0.00 | 80 | 1007.8 |
| 20260508082846 | 35 | 217 | 4.0 | 9.0 | 0.00 | 0.00 | 0.00 | 80 | 1007.8 |
| 20260508082344 | 34 | 240 | 5.0 | 9.0 | 0.00 | 0.00 | 0.00 | 81 | 1007.9 |
| 20260508081844 | 34 | 237 | 4.0 | 7.0 | 0.00 | 0.00 | 0.00 | 82 | 1007.9 |
| 20260508081339 | 34 | 245 | 4.0 | 7.0 | 0.00 | 0.00 | 0.00 | 82 | 1007.9 |
| 20260508080839 | 34 | 231 | 3.0 | 6.0 | 0.00 | 0.00 | 0.00 | 83 | 1008.0 |
| 20260508080336 | 34 | 241 | 4.0 | 6.0 | 0.00 | 0.00 | 0.00 | 83 | 1007.9 |
| 20260508075839 | 34 | 231 | 4.0 | 6.0 | 0.00 | 0.00 | 0.00 | 84 | 1007.9 |
| 20260508075600 | 34 | 255 | 3.0 | 5.0 | 0.00 | 0.00 | 0.00 | 84 | 1008.0 |
| 20260508074835 | 34 | 231 | 3.0 | 5.0 | 0.00 | 0.00 | 0.00 | 84 | 1008.1 |
| 20260508074335 | 34 | 237 | 4.0 | 5.0 | 0.00 | 0.00 | 0.00 | 85 | 1008.1 |
| 20260508073836 | 34 | 258 | 3.0 | 6.0 | 0.00 | 0.00 | 0.00 | 85 | 1008.1 |
| 20260508073335 | 34 | 254 | 3.0 | 6.0 | 0.00 | 0.00 | 0.00 | 86 | 1008.2 |
| 20260508072835 | 34 | 251 | 3.0 | 5.0 | 0.00 | 0.00 | 0.00 | 86 | 1008.2 |
| 20260508072335 | 34 | 237 | 3.0 | 5.0 | 0.00 | 0.00 | 0.00 | 86 | 1008.2 |
| 20260508071835 | 34 | 231 | 3.0 | 5.0 | 0.00 | 0.00 | 0.00 | 86 | 1008.2 |
| 20260508071333 | 34 | 227 | 3.0 | 4.0 | 0.00 | 0.00 | 0.00 | 86 | 1008.2 |
| 20260508070332 | 34 | 217 | 2.0 | 4.0 | 0.00 | 0.00 | 0.00 | 86 | 1008.2 |
| 20260508065832 | 34 | 210 | 2.0 | 4.0 | 0.00 | 0.00 | 0.00 | 86 | 1008.2 |
| 20260508065331 | 34 | 220 | 2.0 | 3.0 | 0.00 | 0.00 | 0.00 | 85 | 1008.3 |
| 20260508064833 | 34 | 212 | 2.0 | 3.0 | 0.00 | 0.00 | 0.00 | 85 | 1008.3 |
| 20260508064600 | 34 | 220 | 2.0 | 3.0 | 0.00 | 0.00 | 0.00 | 85 | 1008.4 |
| 20260508063831 | 34 | 214 | 2.0 | 4.0 | 0.00 | 0.00 | 0.00 | 84 | 1008.5 |
| 20260508063330 | 35 | 223 | 2.0 | 4.0 | 0.00 | 0.00 | 0.00 | 84 | 1008.6 |
| 20260508062831 | 35 | 210 | 3.0 | 3.0 | 0.00 | 0.00 | 0.00 | 84 | 1008.5 |
| 20260508062331 | 35 | 217 | 2.0 | 4.0 | 0.00 | 0.00 | 0.00 | 84 | 1008.6 |
| 20260508061831 | 35 | 219 | 2.0 | 4.0 | 0.00 | 0.00 | 0.00 | 83 | 1008.7 |
| 20260508061331 | 35 | 220 | 3.0 | 4.0 | 0.00 | 0.00 | 0.00 | 83 | 1008.7 |
| 20260508060830 | 36 | 219 | 3.0 | 4.0 | 0.00 | 0.00 | 0.00 | 83 | 1008.7 |
| 20260508060331 | 36 | 220 | 2.0 | 3.0 | 0.00 | 0.00 | 0.00 | 83 | 1008.7 |
| 20260508055830 | 36 | 217 | 2.0 | 4.0 | 0.00 | 0.00 | 0.00 | 82 | 1008.8 |
| 20260508055329 | 36 | 216 | 2.0 | 4.0 | 0.00 | 0.00 | 0.00 | 82 | 1008.9 |
| 20260508055105 | 36 | 221 | 2.0 | 3.0 | 0.00 | 0.00 | 0.00 | 83 | 1009.0 |
| 20260508054330 | 36 | 214 | 2.0 | 4.0 | 0.00 | 0.00 | 0.00 | 83 | 1009.0 |
| 20260508054054 | 36 | 209 | 2.0 | 5.0 | 0.00 | 0.00 | 0.00 | 83 | 1009.0 |
| 20260508053328 | 36 | 221 | 3.0 | 5.0 | 0.00 | 0.00 | 0.00 | 83 | 1009.0 |
| 20260508052828 | 36 | 241 | 2.0 | 4.0 | 0.00 | 0.00 | 0.00 | 83 | 1009.0 |
| 20260508052328 | 36 | 226 | 3.0 | 4.0 | 0.00 | 0.00 | 0.00 | 82 | 1009.0 |
| 20260508051830 | 36 | 238 | 3.0 | 4.0 | 0.00 | 0.00 | 0.00 | 82 | 1009.0 |
| 20260508051325 | 36 | 226 | 2.0 | 4.0 | 0.00 | 0.00 | 0.00 | 81 | 1009.0 |
| 20260508050825 | 36 | 220 | 3.0 | 4.0 | 0.00 | 0.00 | 0.00 | 81 | 1009.1 |
| 20260508050326 | 37 | 244 | 2.0 | 3.0 | 0.00 | 0.00 | 0.00 | 80 | 1009.1 |
| 20260508050044 | 37 | 233 | 2.0 | 4.0 | 0.00 | 0.00 | 0.00 | 80 | 1009.2 |
| 20260508045322 | 37 | 240 | 2.0 | 4.0 | 0.00 | 0.00 | 0.00 | 79 | 1009.2 |
| 20260508045051 | 37 | 243 | 3.0 | 4.0 | 0.00 | 0.00 | 0.00 | 78 | 1009.2 |
| 20260508044319 | 38 | 237 | 2.0 | 4.0 | 0.00 | 0.00 | 0.00 | 77 | 1009.1 |
| 20260508044050 | 38 | 261 | 2.0 | 3.0 | 0.00 | 0.00 | 0.00 | 77 | 1009.1 |
| 20260508043317 | 38 | 241 | 1.0 | 3.0 | 0.00 | 0.00 | 0.00 | 76 | 1009.0 |
| 20260508042817 | 39 | 258 | 2.0 | 3.0 | 0.00 | 0.00 | 0.00 | 76 | 1009.1 |
| 20260508042314 | 39 | 275 | 0.0 | 6.0 | 0.00 | 0.00 | 0.00 | 75 | 1009.0 |
| 20260508041816 | 40 | 199 | 2.0 | 6.0 | 0.00 | 0.00 | 0.00 | 74 | 1009.0 |
| 20260508041312 | 40 | 175 | 3.0 | 6.0 | 0.00 | 0.00 | 0.00 | 74 | 1009.0 |
| 20260508040810 | 40 | 186 | 4.0 | 6.0 | 0.00 | 0.00 | 0.00 | 73 | 1009.0 |
| 20260508040311 | 40 | 200 | 3.0 | 6.0 | 0.00 | 0.00 | 0.00 | 72 | 1009.0 |
| 20260508035808 | 40 | 199 | 2.0 | 5.0 | 0.00 | 0.00 | 0.00 | 72 | 1009.0 |
| 20260508035535 | 40 | 193 | 2.0 | 5.0 | 0.00 | 0.00 | 0.00 | 72 | 1009.1 |
| 20260508034807 | 40 | 214 | 2.0 | 5.0 | 0.00 | 0.00 | 0.00 | 72 | 1009.0 |
| 20260508034309 | 40 | 216 | 3.0 | 5.0 | 0.00 | 0.00 | 0.00 | 73 | 1008.9 |
| 20260508033805 | 40 | 228 | 1.0 | 5.0 | 0.00 | 0.00 | 0.00 | 73 | 1008.9 |
| 20260508033306 | 40 | 145 | 1.0 | 5.0 | 0.00 | 0.00 | 0.00 | 74 | 1009.0 |
| 20260508032806 | 40 | 171 | 1.0 | 6.0 | 0.00 | 0.00 | 0.00 | 74 | 1008.9 |
| 20260508032306 | 40 | 186 | 2.0 | 6.0 | 0.00 | 0.00 | 0.00 | 76 | 1008.9 |
| 20260508031804 | 40 | 199 | 3.0 | 4.0 | 0.00 | 0.00 | 0.00 | 78 | 1008.9 |
| 20260508031552 | 40 | 199 | 2.0 | 4.0 | 0.00 | 0.00 | 0.00 | 78 | 1009.0 |
| 20260508030842 | 40 | 192 | 2.0 | 4.0 | 0.00 | 0.00 | 0.00 | 78 | 1009.1 |
| 20260508030334 | 40 | 175 | 2.0 | 4.0 | 0.00 | 0.00 | 0.00 | 77 | 1009.2 |
| 20260508025800 | 40 | 193 | 2.0 | 4.0 | 0.00 | 0.00 | 0.00 | 77 | 1009.4 |
| 20260508025525 | 40 | 188 | 2.0 | 3.0 | 0.00 | 0.00 | 0.00 | 77 | 1009.4 |
| 20260508024759 | 40 | 197 | 1.0 | 2.0 | 0.00 | 0.00 | 0.00 | 77 | 1009.4 |
| 20260508024300 | 40 | 314 | 1.0 | 2.0 | 0.00 | 0.00 | 0.00 | 77 | 1009.5 |
| 20260508023758 | 40 | 316 | 1.0 | 3.0 | 0.00 | 0.00 | 0.00 | 77 | 1009.6 |
| 20260508023257 | 40 | 178 | 2.0 | 3.0 | 0.00 | 0.00 | 0.00 | 77 | 1009.5 |
| 20260508022800 | 40 | 152 | 1.0 | 2.0 | 0.00 | 0.00 | 0.00 | 77 | 1009.6 |
| 20260508022256 | 40 | 154 | 0.0 | 2.0 | 0.00 | 0.00 | 0.00 | 76 | 1009.6 |
| 20260508021756 | 40 | 152 | 0.0 | 0.0 | 0.00 | 0.00 | 0.00 | 76 | 1009.7 |
| 20260508021256 | 40 | 152 | 0.0 | 0.0 | 0.00 | 0.00 | 0.00 | 76 | 1009.7 |
| 20260508020756 | 40 | 152 | 0.0 | 1.0 | 0.00 | 0.00 | 0.00 | 76 | 1009.6 |
| 20260508020255 | 40 | 152 | 0.0 | 1.0 | 0.00 | 0.00 | 0.00 | 76 | 1009.5 |
| 20260508015750 | 40 | 144 | 0.0 | 3.0 | 0.00 | 0.00 | 0.00 | 75 | 1009.4 |
| 20260508015246 | 40 | 142 | 1.0 | 3.0 | 0.00 | 0.00 | 0.00 | 76 | 1009.4 |
| 20260508014749 | 40 | 76 | 1.0 | 3.0 | 0.00 | 0.00 | 0.00 | 76 | 1009.4 |
| 20260508014017 | 41 | 116 | 0.0 | 2.0 | 0.00 | 0.00 | 0.00 | 77 | 1009.4 |
| 20260508013244 | 41 | 117 | 0.0 | 2.0 | 0.00 | 0.00 | 0.00 | 77 | 1009.2 |
| 20260508012740 | 41 | 95 | 0.0 | 1.0 | 0.00 | 0.00 | 0.00 | 77 | 1009.4 |
| 20260508012239 | 41 | 95 | 0.0 | 1.0 | 0.00 | 0.00 | 0.00 | 76 | 1009.2 |
| 20260508011734 | 41 | 87 | 0.0 | 2.0 | 0.00 | 0.00 | 0.00 | 76 | 1009.4 |
| 20260508011234 | 41 | 107 | 1.0 | 3.0 | 0.00 | 0.00 | 0.00 | 76 | 1009.1 |
| 20260508010735 | 42 | 80 | 1.0 | 3.0 | 0.00 | 0.00 | 0.00 | 76 | 1009.1 |
| 20260508010235 | 42 | 95 | 1.0 | 3.0 | 0.00 | 0.00 | 0.00 | 76 | 1009.0 |
| 20260508005731 | 42 | 103 | 0.0 | 3.0 | 0.00 | 0.00 | 0.00 | 76 | 1009.0 |
| 20260508005231 | 42 | 85 | 2.0 | 4.0 | 0.00 | 0.00 | 0.00 | 76 | 1009.0 |
| 20260508004732 | 42 | 100 | 2.0 | 4.0 | 0.00 | 0.00 | 0.00 | 77 | 1009.0 |
| 20260508004504 | 42 | 95 | 1.0 | 4.0 | 0.00 | 0.00 | 0.00 | 77 | 1008.9 |
| 20260508003731 | 42 | 131 | 2.0 | 5.0 | 0.00 | 0.00 | 0.00 | 77 | 1008.9 |
| 20260508003231 | 42 | 69 | 1.0 | 5.0 | 0.00 | 0.00 | 0.00 | 75 | 1008.8 |
| 20260508002731 | 42 | 102 | 3.0 | 5.0 | 0.00 | 0.00 | 0.00 | 74 | 1008.8 |
| 20260508002229 | 42 | 72 | 1.0 | 5.0 | 0.00 | 0.00 | 0.00 | 74 | 1008.8 |
| 20260508001729 | 42 | 102 | 2.0 | 5.0 | 0.00 | 0.00 | 0.00 | 74 | 1008.8 |
| 20260508001303 | 42 | 89 | 3.0 | 5.0 | 0.00 | 0.00 | 0.00 | 73 | 1008.7 |
| 20260508000825 | 42 | 102 | 1.0 | 4.0 | 0.00 | 0.00 | 0.00 | 72 | 1008.7 |
| 20260508000227 | 42 | 110 | 2.0 | 5.0 | 0.00 | 0.00 | 0.00 | 72 | 1008.8 |
| 20260507235712 | 42 | 134 | 2.0 | 5.0 | 0.00 | 0.00 | 0.00 | 72 | 1008.7 |
| 20260507235213 | 42 | 99 | 2.0 | 5.0 | 0.00 | 0.00 | 0.00 | 72 | 1008.6 |
| 20260507234941 | 42 | 114 | 4.0 | 5.0 | 0.00 | 0.00 | 0.00 | 74 | 1008.7 |
| 20260507234214 | 42 | 90 | 2.0 | 5.0 | 0.00 | 0.00 | 0.00 | 75 | 1008.7 |
| 20260507233713 | 42 | 73 | 1.0 | 5.0 | 0.00 | 0.00 | 0.00 | 75 | 1008.8 |
| 20260507233442 | 42 | 107 | 3.0 | 6.0 | 0.00 | 0.00 | 0.00 | 75 | 1008.7 |
| 20260507232713 | 42 | 104 | 2.0 | 6.0 | 0.00 | 0.00 | 0.00 | 76 | 1008.7 |
| 20260507232214 | 42 | 118 | 4.0 | 6.0 | 0.00 | 0.00 | 0.00 | 77 | 1008.6 |
| 20260507231713 | 42 | 87 | 2.0 | 4.0 | 0.00 | 0.00 | 0.00 | 78 | 1008.7 |
| 20260507231212 | 42 | 135 | 2.0 | 4.0 | 0.00 | 0.00 | 0.00 | 79 | 1008.7 |
| 20260507230711 | 41 | 96 | 2.0 | 4.0 | 0.00 | 0.00 | 0.00 | 79 | 1008.7 |